Regional Weather Roundup
Issued by NWS

Home | Current Version | Previous Version | Text Only | Print | Product List | Glossary Off
Versions: 1 2 3 4 5 6 7 8 9 10 11 12 13 14 15 16 17 18 19 20 21 22 23 24 25 26 27 28 29 30 31 32 33 34 35 36 37 38 39 40 41 42 43 44 45 46 47 48 49 50

000
ASUS43 KLMK 260902
RWRKY
KENTUCKY REGIONAL WEATHER ROUNDUP
NATIONAL WEATHER SERVICE LOUISVILLE KY
500 AM EDT THU APR 26 2018

NOTE "FAIR" INDICATES FEW OR NO CLOUDS BELOW 12,000 FEET
WITH NO SIGNIFICANT WEATHER AND/OR OBSTRUCTIONS TO VISIBILITY.

KYZ001>023-026-027-061>063-070>075-261000-
WESTERN AND SOUTH CENTRAL KENTUCKY

CITY           SKY/WX    TMP DP  RH WIND       PRES   REMARKS
PADUCAH        CLOUDY    56  54  93 NE7       29.84F FOG
HENDERSON      FAIR      56  41  57 NE9       29.90S
OWENSBORO      FAIR      55  43  63 NE8       29.89S
HOPKINSVILLE   FAIR      56  55  96 N3        29.85F
BOWLING GREEN  MOCLDY    53  52  96 CALM      29.86S
GLASGOW        NOT AVBL
$$

KYZ024-025-028>034-038-045-046-053-261000-
NORTH CENTRAL KENTUCKY

CITY           SKY/WX    TMP DP  RH WIND       PRES   REMARKS
LOUISVILLE/SDF CLOUDY    52  36  54 N8        29.90S
LOUISVILLE/LOU FAIR      51  38  60 NW3       29.91S
FORT KNOX      CLOUDY    51  36  57 N7        29.90S
$$

KYZ035>037-039>044-047>052-055>060-089>105-261000-
NORTHEAST KENTUCKY

CITY           SKY/WX    TMP DP  RH WIND       PRES   REMARKS
LEXINGTON      FAIR      49  42  77 NW3       29.89S
COVINGTON      MOCLDY    45  34  65 NW5       29.89S
FRANKFORT      FAIR      51  39  63 N3        29.88F
$$

KYZ054-064>069-076>088-106>120-261000-
SOUTHEAST KENTUCKY

CITY           SKY/WX    TMP DP  RH WIND       PRES   REMARKS
JACKSON        CLOUDY    50  49  96 S3        29.89F FOG
LONDON         FOG       45  45 100 CALM      29.90S VSB 1/2
SOMERSET       NOT AVBL
MIDDLESBORO    FOG       49  49 100 CALM      29.91F VSB 1
MONTICELLO     NOT AVBL
$$





USA.gov is the U.S. government's official web portal to all federal, state and local government web resources and services.